sat.trackr.live / text

‹ back to catalog

STARLINK-37024

NORAD 68106 · 2026-044F

PAYLOAD ACTIVE UNKNOWN

§ Identity

Operator
Country
US
Launch date
2026-03-08
Launch site
AFWTR
Launch vehicle
Mass (kg)
RCS (m²)

Purposes: comms

External: N2YO · Heavens-Above · Gunter

§ Orbital elements

Epoch: 2026-05-24T20:33:37.002528Z

Period
93.91 min
Inclination
97.2837°
Eccentricity
0.0001761
Mean motion
15.33461330 rev/d
Perigee alt
464.3 km
Apogee alt
466.7 km
Semi-major
6,843.6 km
B*
5.8252e-4
RAAN
105.4548°
Arg perigee
97.0570°
Mean anomaly
263.0873°
Rev number
1,325

§ Raw data

STARLINK-370241 68106U 26044F   26144.85667827  .00018788  00000+0  58252-3 0  99992 68106  97.2837 105.4548 0001761  97.0570 263.0873 15.33461330 13258

JSON: /api/v1/satellites/68106 · /tle

For live sub-satellite position, see the globe view (requires WebGL).

§ Visibility from observer

Set your observer location to see the next 7 days of passes ≥ 10°. The values pass through the URL so the page stays shareable.

No JS? Fill the form by hand. The geolocation button needs JavaScript.